Other Public Products
Issued by NWS Grand Forks, ND

Home | Current Version | Previous Version | Graphics & Text | Print | Product List | Glossary On
Versions: 1 2 3 4 5 6 7 8 9 10 11 12 13 14 15 16 17 18 19 20 21 22 23 24 25 26 27 28 29 30 31 32 33 34 35 36 37 38 39 40 41 42 43 44 45 46 47 48 49 50
000
FPUS83 KFGF 250931
OPUFGF
PRAIRIE TO PINES WEATHER ROUNDUP
NATIONAL WEATHER SERVICE EASTERN NORTH DAKOTA/GRAND FORKS ND
400 AM CDT MON SEP 25 2017

 **SATELLITE DATA USED TO AUGMENT SKY COVER AT AUTOMATED STATIONS**
 *****  WEATHER ACROSS EASTERN NORTH DAKOTA  *****

CITY           SKY/WX    TMP DP  RH WIND       PRES   REMARKS
GRAND FORKS    CLOUDY    49  48  97 N12G22    30.06R
GRAND FORKS AF CLOUDY    50  48  93 N9        30.09R
GRAND CITY NWS NOT AVBL
BUXTON           N/A     49  48  98 NW10        N/A
DEVILS LAKE    CLOUDY    47  45  93 N9        30.10R
FARGO          CLOUDY    51  49  92 N14       30.06R
WAHPETON ARPT  PTSUNNY   50  46  87 NW8       30.04F
$$

 *****  WEATHER ACROSS CENTRAL AND WESTERN NORTH DAKOTA  *****

CITY           SKY/WX    TMP DP  RH WIND       PRES   REMARKS
JAMESTOWN      CLOUDY    48  46  93 NW12      30.09S
BISMARCK       CLOUDY    49  46  90 NW6       30.13R
MINOT          CLOUDY    47  44  90 SW3       30.11F
MINOT AFB      CLOUDY    45  43  94 W6        30.10S
GARRISON         N/A     44  44 100 N6        30.12S
WILLISTON      CLOUDY    45  44  97 SE3       30.14S
DICKINSON      CLOUDY    44  41  89 CALM      30.11S
HETTINGER      CLOUDY    44  38  79 N3        30.14S
$$

 *****  OTHER OBSERVATIONS NORTHEAST NORTH DAKOTA  *****

CITY           SKY/WX    TMP DP  RH WIND       PRES   REMARKS
WALHALLA       FAIR     N/A N/A N/A N12       30.09R
LANGDON        NOT AVBL
CAVALIER       CLOUDY    48  46  93 N9        30.08R
GRAFTON        NOT AVBL
CANDO          CLOUDY    46  46 100 N6        30.12S
FORT TOTTEN      N/A     48  45  90 N3        29.95S
ROLLA          CLOUDY    43  43 100 N6        30.12S
RUGBY          NOT AVBL
 ***** THE ABOVE OBSERVATIONS ARE NON NWS ARE NOT QUALITY
        CONTROLLED AND MAY MIS-REPORT RAIN FOR SNOW...
$$

 *****  OTHER OBSERVATIONS SOUTHEAST NORTH DAKOTA *****

CITY           SKY/WX    TMP DP  RH WIND       PRES   REMARKS
COOPERSTOWN    CLOUDY    48  48 100 NW8       30.10R
VALLEY CITY    NOT AVBL
OAKES          NOT AVBL
GWINNER        CLOUDY    50  48  93 CALM      30.07S
SHEYENNE NWR     N/A     51  49  91 N5        29.95S
BUFFALO          N/A     49  45  85 SW7         N/A
WYNDMERE       NOT AVBL
 ***** THE ABOVE OBSERVATIONS ARE NON NWS ARE NOT QUALITY
       CONTROLLED AND MAY MIS-REPORT RAIN FOR SNOW...
$$

  *****  WEATHER ACROSS NORTHERN MINNESOTA  *****

CITY           SKY/WX    TMP DP  RH WIND       PRES   REMARKS
FLAG ISLAND    CLOUDY    48  46  93 NW16      29.98R FOG
WARROAD        CLOUDY    46  43  87 NW9       30.01R FOG
ROSEAU         MOCLDY    46  43  87 NW7       30.02R
HALLOCK        CLOUDY    48  46  93 N9        30.06R FOG
THF RVR FALLS  LGT RAIN  46  46 100 NW12      30.05R FOG
HALSTAD          N/A     49  48  97 N10         N/A
FOSSTON        CLOUDY    46  45  93 NW9       30.04R FOG
BAUDETTE       CLOUDY    50  49  96 W8        29.97S
WASKISH        CLOUDY    50  48  93 NW8       29.99S
CROOKSTON      CLOUDY    48  48 100 N9        30.07R
$$
  *****  WEATHER ACROSS CENTRAL AND WEST MINNESOTA  *****

CITY           SKY/WX    TMP DP  RH WIND       PRES   REMARKS
BEMIDJI        CLOUDY    47  47  99 NW10      30.01R FOG
PARK RAPIDS    CLOUDY    49  46  90 NW8       30.00S
WADENA         CLOUDY    48  48 100 NW7       30.01S FOG
DETROIT LAKES  CLOUDY    48  46  93 NW10      30.04R
MOORHEAD       CLOUDY    48  48 100 NW12      30.06R FOG
FERGUS FALLS   CLOUDY    50  50 100 N10       30.04F
ELBOW LAKE     CLOUDY    50  49  98 NW10      30.03S
MORRIS MN      CLOUDY    52  48  87 N9        30.02S
STAPLES        FAIR      48  46  93 NW7       30.01S
WHEATON        CLOUDY    50  46  87 N7        30.06S
$$
  *****  WEATHER ELSEWHERE ACROSS MINNESOTA  *****

CITY           SKY/WX    TMP DP  RH WIND       PRES   REMARKS
DULUTH         CLOUDY    59  59 100 NW3       29.93R
INTRNTL FALLS  CLOUDY    50  49  96 W6        29.96R FOG
ELY            CLOUDY    55  55 100 W8        29.94R
CLOQUET        CLOUDY    57  55  94 NW9G16    29.95R FOG
BRAINERD       CLOUDY    53  50  89 NW9       29.99S
HIBBING        CLOUDY    52  51  97 NW8       29.95R
ALEXANDRIA     MOCLDY    51  49  92 NW6       30.02S
SAINT CLOUD    CLOUDY    55  54  96 NW10      29.99R
MINNEAPOLIS    LGT RAIN  64  64 100 NW7       29.94S
$$

  *****  WEATHER ACROSS SOUTH DAKOTA  *****

CITY           SKY/WX    TMP DP  RH WIND       PRES   REMARKS
SIOUX FALLS    RAIN      54  54 100 N10       29.99F
BROOKINGS      LGT RAIN  50  48  93 NE6       30.04R
WATERTOWN      CLOUDY    49  48  97 N14       30.02F
HURON          CLOUDY    50  48  93 N6        30.07R
SISSETON         N/A     51  49  92 N10       30.03F
ABERDEEN       CLOUDY    49  46  90 N14       30.06F
MITCHELL       CLOUDY    52  50  93 N9        30.06F
PIERRE         CLOUDY    49  45  86 NE7       30.09S
MOBRIDGE       CLOUDY    50  45  83 N8        30.09F
RAPID CITY     NOT AVBL
$$

  *****  SOME WEATHER IN NEARBY STATES *****

CITY           SKY/WX    TMP DP  RH WIND       PRES   REMARKS
GLASGOW MT     MOCLDY    38  37  97 E9        30.11S
GREAT FALLS MT FAIR      39  30  70 SW9       30.04F
CHEYENNE WY    CLOUDY    39  38  96 N8        30.10S FOG
SCOTTSBLUFF NE FAIR      43  40  89 E7        30.08F
OMAHA NE       CLOUDY    63  60  90 N15       29.93R
DES MOINES IA  FAIR      71  63  75 SE7       29.91F
DAVENPORT IA   FAIR      64  61  90 CALM      29.98R
CHICAGO IL     FAIR      69  57  65 S5        29.99S
EAU CLAIRE WI  FAIR      65  62  90 CALM      29.93R
LA CROSSE WI   FAIR      71  66  84 SE5       29.93F
$$

  *****  SOME NATIONAL WEATHER *****

CITY           SKY/WX    TMP DP  RH WIND       PRES   REMARKS
LA GUARDIA NY  FAIR      72  68  87 CALM      30.01S
RALEIGH NC     MOCLDY    66  61  84 NE8       29.99F
ATLANTA GA     FAIR      71  64  78 NE8       30.01S
NEW ORLEANS LA FAIR      75  72  90 CALM      29.89F
OKLAHOMA CITY  MOCLDY    70  64  81 S8        29.90S
ALBUQUERQUE NM FAIR      57  22  25 N3        29.97S
SALT LAKE CITY MOCLDY    45  42  89 SE3       30.11F
LOS ANGELES CA FAIR      63  49  60 E3        29.85F
BOISE ID       FAIR      42  35  76 SW6       30.06R
SEATTLE WA     CLOUDY    59  51  75 SE7       30.10S
$$

*** WEATHER ACROSS MANITOBA...SASKATCHEWAN AND ONTARIO ***
                ***ONTARIO***

CITY           SKY/WX    TMP DP  RH WIND       PRES   REMARKS
GERALDTON      PTCLDY    66  61  82 SW8       29.80R
THUNDER BAY    MOCLDY    61  61 100 E2        29.82R
SIOUX LOOKOUT  LGT RAIN  50  50 100 NW8       29.90R FOG
TORONTO        CLEAR     70  63  78 NW6       30.07S
BIG TROUT LK   LGT RAIN  45  45 100 N9        29.94R FOG
PICKLE LAKE    NOT AVBL
DRYDEN         CLOUDY    50  50 100 NW8       29.94R
KENORA         DRIZZLE   48  46  93 N10       29.97R FOG
$$
                *** MANITOBA***

CITY           SKY/WX    TMP DP  RH WIND       PRES   REMARKS
BRANDON        CLOUDY    46  43  87 N2        30.13R
DAUPHIN        CLOUDY    45  45 100 N3        30.12S
ISLAND LAKE    NOT AVBL
PILOT MOUND      N/A     46  43  87 N8          N/A
THE PAS        PTCLDY    37  36  93 SE3       30.13R
THOMPSON       PTCLDY    30  28  93 N3        30.15
WINNIPEG       CLOUDY    48  45  87 N12G18    30.07R
LYNN LAKE      CLOUDY    36  36 100 E3        30.12F
CHURCHILL      CLOUDY    37  34  87 W3        30.17R
GILLAM         CLOUDY    37  34  87 NE8       30.15S
$$
                ***SASKATCHEWAN***

CITY           SKY/WX    TMP DP  RH WIND       PRES   REMARKS
ESTEVAN        MOCLDY    45  43  93 NW2       30.12F
KINDERSLEY     PTCLDY    37  32  81 SE8       30.00F
LLOYDMINSTER   CLOUDY    46  36  66 S12       29.94F
PRINCE ALBERT  CLEAR     37  37 100 E3        30.07S
REGINA         CLOUDY    43  36  75 S7        30.10F
YORKTON        CLOUDY    45  41  87 CALM      30.11S



USA.gov is the U.S. government's official web portal to all federal, state and local government web resources and services.